Regional Weather Roundup
Issued by NWS

Home | Current Version | Previous Version | Graphics & Text | Print | Product List | Glossary On
Versions: 1 2 3 4 5 6 7 8 9 10 11 12 13 14 15 16 17 18 19 20 21 22 23 24 25 26 27 28 29 30 31 32 33 34 35 36 37 38 39 40 41 42 43 44 45 46 47 48 49 50
000
ASUS45 KSLC 201610
RWRUT

UTAH REGIONAL WEATHER ROUNDUP
NATIONAL WEATHER SERVICE SALT LAKE CITY UT
900 AM MST SAT DEC 20 2014

UTZ001>011-023>025-201700-

NORTHERN UTAH

CITY           SKY/WX    TMP DP  RH WIND       PRES   REMARKS
BRIGHAM CITY   CLOUDY    38  34  86 CALM      30.12S
HILL AFB       CLOUDY    36  36 100 E6        30.11R WCI  31
LOGAN          CLOUDY    37  34  89 NE3       30.09S
OGDEN          CLOUDY    37  36  96 E6        30.11R WCI  32
PROVO AIRPORT  CLOUDY    36  30  80 CALM      30.12F
SALT LAKE CITY CLOUDY    39  34  82 CALM      30.11R
VERNAL         PTSUNNY   25  22  88 CALM      30.16S FOG
WENDOVER       CLOUDY    30  25  80 CALM      30.10F
HEBER CITY     CLOUDY    32  32 100 CALM      30.10S
WEST JORDAN    CLOUDY    37  36  93 S7        30.11R WCI  32

$$

UTZ012>022-026-027-201700-

SOUTHERN/CENTRAL UTAH

CITY           SKY/WX    TMP DP  RH WIND       PRES   REMARKS
BLANDING       CLOUDY    30  28  94 W3        30.27R
BRYCE CANYON   SUNNY     20  15  81 CALM      30.15S
CEDAR CITY     SUNNY     31  24  75 CALM      30.14R
DELTA          SUNNY     32  28  88 SE6       30.13R WCI  26
MILFORD        SUNNY     31  25  78 SE6       30.12R WCI  25
MOAB/CYNLANDS  CLOUDY    31  30  96 CALM      30.19R FOG
PRICE          CLOUDY    30  23  75 CALM      30.15S
ST GEORGE      MOSUNNY   36  30  80 CALM      30.21R
KANAB          SUNNY     32  27  80 N6        30.21R WCI  26

$$

REGIONAL REPORTS     COLORADO/ARIZONA

CITY           SKY/WX    TMP DP  RH WIND       PRES   REMARKS
CRAIG, CO        N/A     24  20  84 SW3       30.14S
GRAND JUNCTION CLOUDY    30  24  78 S3        30.20R
RIFLE          CLOUDY    27  22  81 CALM      30.20S
MONTROSE       CLOUDY    29  18  63 CALM      30.20S
CORTEZ         SUNNY     27  21  78 CALM      30.19R
PAGE, AZ       MOSUNNY   38  29  70 S6        30.20R WCI  33
GRAND CANYON   SUNNY     25  21  85 CALM      30.17F
KINGMAN        MOSUNNY   37  31  78 CALM      30.15R
FLAGSTAFF      SUNNY     25  22  88 CALM      30.18S

$$

REGIONAL REPORTS    NEVADA/IDAHO/WYOMING

CITY           SKY/WX    TMP DP  RH WIND       PRES   REMARKS
LAS VEGAS, NV  CLOUDY    44  36  73 S9        30.14R
ELY            CLOUDY    28  24  85 S7        30.12F WCI  21
ELKO           LGT SNOW  32  31  96 S3        30.07S FOG
POCATELLO, ID  CLOUDY    37  33  85 S5        30.05F WCI  33
BURLEY         CLOUDY    38  31  76 SW12      30.04R WCI  30
EVANSTON, WY   CLOUDY    30  28  92 SW10      30.07R WCI  21
ROCK SPRINGS   CLOUDY    29  23  78 SW13      30.06R WCI  19
KEMMERER       CLOUDY    30  28  93 SW5       30.06R WCI  25

$$



USA.gov is the U.S. government's official web portal to all federal, state and local government web resources and services.